Regional Weather Roundup
Issued by NWS

Home | Current Version | Previous Version | Text Only | Print | Product List | Glossary On
Versions: 1 2 3 4 5 6 7 8 9 10 11 12 13 14 15 16 17 18 19 20 21 22 23 24 25 26 27 28 29 30 31 32 33 34 35 36 37 38 39 40 41 42 43 44 45 46 47 48 49 50
000
ASUS44 KBMX 242310
RWRAL

ALABAMA REGIONAL WEATHER ROUNDUP
NATIONAL WEATHER SERVICE BIRMINGHAM AL
600 PM CDT SAT JUN 24 2017

NOTE: "FAIR" INDICATES FEW OR NO CLOUDS BELOW 12,000 FEET
WITH NO SIGNIFICANT WEATHER AND/OR OBSTRUCTIONS TO VISIBILITY.

THE REMARK "TC" DENOTES TEMPERATURE IN DEGREES CELSIUS.

ALZ001>011-014-016>018-020-250000-
NORTH ALABAMA

CITY           SKY/WX    TMP DP  RH WIND       PRES   REMARKS
MUSCLE SHOALS  MOSUNNY   83  62  49 N6        30.06R
HUNTSVILLE     MOSUNNY   83  65  54 N9        30.03R
DECATUR        MOSUNNY   81  68  64 N9        30.04R
HALEYVILLE     NOT AVBL
GADSDEN        MOSUNNY   85  73  67 N10       30.01R HX  91
$$

ALZ012-013-022-023-030>036-040>044-250000-
WEST CENTRAL ALABAMA

CITY           SKY/WX    TMP DP  RH WIND       PRES   REMARKS
TUSCALOOSA     CLOUDY    86  74  67 N9        30.01R HX  94
$$

ALZ015-024>027-033>036-040>044-250000-
CENTRAL ALABAMA

CITY           SKY/WX    TMP DP  RH WIND       PRES   REMARKS
BIRMINGHAM     CLOUDY    84  73  69 NW8       30.04R HX  90
MONTGOMERY     SUNNY     89  71  55 W9        29.99R HX  95
SHELBY CO ARPT LGT RAIN  76  74  93 CALM      30.02R FOG
MAXWELL AFB    MOSUNNY   88  75  66 W8        29.99R HX  97
GREENVILLE     FAIR      89  70  53 NW7       30.00R HX  94
$$

ALZ019-021-028-029-037-038-045>048-250000-
EAST CENTRAL ALABAMA

CITY           SKY/WX    TMP DP  RH WIND       PRES   REMARKS
ANNISTON       CLOUDY    75  71  87 SW5       30.01R
ALEXANDER CITY MOSUNNY   84  74  72 NW3       30.01R HX  92
AUBURN         CLOUDY    79  75  87 SE10      30.01S
$$

ALZ051>064-250000-
SOUTHWEST ALABAMA

CITY           SKY/WX    TMP DP  RH WIND       PRES   REMARKS
MOBILE         MOSUNNY   88  74  63 CALM      30.02S HX  96
BROOKLEY FIELD PTSUNNY   87  79  76 S6        30.02S HX 101
EVERGREEN      MOSUNNY   85  75  72 CALM      30.00R HX  93
$$

ALZ049-050-065>069-250000-
SOUTHEAST ALABAMA

CITY           SKY/WX    TMP DP  RH WIND       PRES   REMARKS
DOTHAN         SUNNY     85  77  77 SW9       30.03S HX  95
OZARK          SUNNY     85  77  75 MISG      29.99R HX  96
TROY           MOSUNNY   86  75  69 W5        30.00R HX  95
EUFAULA        TSTM      76  74  93 W6        30.00R
$$



USA.gov is the U.S. government's official web portal to all federal, state and local government web resources and services.